Regional Weather Roundup
Issued by NWS

Home | Current Version | Previous Version | Graphics & Text | Print | Product List | Glossary On
Versions: 1 2 3 4 5 6 7 8 9 10 11 12 13 14 15 16 17 18 19 20 21 22 23 24 25 26 27 28 29 30 31 32 33 34 35 36 37 38 39 40 41 42 43 44 45 46 47 48 49 50
000
ASUS43 KLOT 152300
RWRIL

ILLINOIS REGIONAL WEATHER ROUNDUP
NATIONAL WEATHER SERVICE CHICAGO/ROMEOVILLE IL
600 PM CDT TUE APR 15 2014

NOTE: "FAIR" INDICATES FEW OR NO CLOUDS BELOW 12,000 FEET WITH NO
SIGNIFICANT WEATHER AND/OR OBSTRUCTIONS TO VISIBILITY.

* THESE STATIONS ARE NOT UNDER NWS QUALITY CONTROL. THEY ALSO MAY NOT
  REPORT WEATHER SUCH AS PRECIPITATION OR FOG.

ILZ001-002-007-009-015-016-024-160000-
NORTHWEST ILLINOIS

CITY           SKY/WX    TMP DP  RH WIND       PRES   REMARKS
MOLINE         SUNNY     42   8  24 W6        30.14R
STERLING*      SUNNY     41  18  38 W16       30.14R
$$

ILZ003-004-008-010-011-017-018-160000-
NORTH CENTRAL ILLINOIS

CITY           SKY/WX    TMP DP  RH WIND       PRES   REMARKS
ROCKFORD       PTSUNNY   38  15  39 SW7       30.14S WCI  33
$$

ILZ005-006-012>014-019>023-160000-
NORTHEAST ILLINOIS

CITY           SKY/WX    TMP DP  RH WIND       PRES   REMARKS
CHICAGO-OHARE  PTSUNNY   38  16  40 W12       30.14R WCI  30
CHICAGO-MIDWAY PTSUNNY   36  18  48 W9        30.15R WCI  29
AURORA         CLOUDY    37  19  48 W7        30.15R WCI  32
WAUKEGAN       CLOUDY    30  18  60 E9        30.14R WCI  22
DUPAGE AIRPORT CLOUDY    37  18  46 NW9G25    30.14R WCI  30
WHEELING       CLOUDY    38  20  48 NW7       30.16R WCI  33
NORTHERLY ISL    N/A     32  21  64 E12         N/A  WCI  23
$$

LMZ740>746-160000-
SOUTHERN LAKE MICHIGAN

STATION/POSITION SKY/WX   TEMP    WIND        PRES    VSBY  WAVE
                          AIR SEA DIR/SP/G                  HT/PER
                          (F)     (DEG/KT/KT) (MB)    (MI)  (FT/S)
WAUKEGAN HARBOR            31     150/ 14/ 16 1022.4R
HARRISON CRIB              30     110/ 14/ 16   N/A
BURNHAM HARBOR             31     100/  9/ 12   N/A
CALUMET HARBOR             31      90/  9/ 12 1022.1R
MICHIGAN CITY              31      10/  6/  9   N/A
$$

ILZ025>027-034>036-040-047-049-050-058-095>099-160000-
WEST-CENTRAL ILLINOIS

CITY           SKY/WX    TMP DP  RH WIND       PRES   REMARKS
QUINCY         SUNNY     47  17  30 W9        30.14S
$$

ILZ028>032-037-038-041>044-048-051>054-059>061-160000-
CENTRAL ILLINOIS

CITY           SKY/WX    TMP DP  RH WIND       PRES   REMARKS
DECATUR        MOSUNNY   43  17  35 NW12      30.17S
PEORIA         SUNNY     43  15  32 W8        30.16R
SPRINGFIELD    SUNNY     46  17  31 W15G21    30.17S
TAYLORVILLE    NOT AVBL
$$

ILZ033-039-045-046-055>057-062-063-160000-
EAST-CENTRAL ILLINOIS

CITY           SKY/WX    TMP DP  RH WIND       PRES   REMARKS
CHAMPAIGN      PTSUNNY   41  20  43 W13       30.17R
MATTOON        PTSUNNY   42  20  41 W9        30.18R
$$

ILZ079-100>102-160000-
SOUTHWEST ILLINOIS

CITY           SKY/WX    TMP DP  RH WIND       PRES   REMARKS
ALTON          MOSUNNY   46  14  27 W6        30.18S
CAHOKIA*       SUNNY     48  21  34 VRB5      30.18F
$$

ILZ064>066-069>071-074>076-080>082-084>086-088>090-092>094-160000-
SOUTH-CENTRAL ILLINOIS

CITY           SKY/WX    TMP DP  RH WIND       PRES   REMARKS
CARBONDALE     SUNNY     47  21  35 N8        30.20F
MARION         MOSUNNY   46  23  39 N12       30.21F
MT. VERNON     SUNNY     45  18  33 N7        30.21S
$$

ILZ067-068-072-073-078-083-087-091-160000-
SOUTHEAST ILLINOIS

CITY           SKY/WX    TMP DP  RH WIND       PRES   REMARKS
$$

ABBREVIATIONS USED IN REMARKS
   TC - TEMPERATURE IN CELSIUS
  WCI - WIND CHILL INDEX
   HX - HEAT INDEX
  VSB - VISIBILITY
$$




USA.gov is the U.S. government's official web portal to all federal, state and local government web resources and services.